Location: Votelez
(50.0000°N, 15.0000°E)
Time: 05:10:28
(UTC+01:00)

ARIANE 6 FM1 Upper Stage - Visible Passes

Search period start: 14 February 2026 00:00
Search period end: 24 February 2026 00:00
Orbit: 522 x 609 km, 62.0° (Epoch: 11 February)

Date Brightness Start Highest point End Pass type
(mag) Time Alt. Az. Time Alt. Az. Time Alt. Az.
14 Feb 3.1 18:40:08 10° NW 18:43:55 41° NE 18:45:29 27° E visible
14 Feb 4.6 20:19:17 10° WNW 20:21:31 26° W 20:21:31 26° W visible
15 Feb 2.7 18:40:04 10° NW 18:43:57 53° NE 18:46:00 25° ESE visible
15 Feb 4.7 20:19:30 10° WNW 20:22:03 23° WSW 20:22:03 23° WSW visible
16 Feb 2.4 18:40:01 10° NW 18:43:58 72° NE 18:46:39 20° SE visible
16 Feb 5.0 20:19:53 10° WNW 20:22:31 17° WSW 20:22:42 17° WSW visible
17 Feb 2.5 18:39:58 10° NW 18:43:56 83° SW 18:47:29 13° SE visible
17 Feb 5.4 20:20:42 10° W 20:22:18 12° WSW 20:23:32 11° SW visible
18 Feb 3.1 18:39:57 10° NW 18:43:51 59° SW 18:47:46 10° SSE visible
19 Feb 3.8 18:40:01 10° WNW 18:43:45 41° SW 18:47:29 10° SSE visible
20 Feb 4.5 18:40:08 10° WNW 18:43:35 30° SW 18:47:03 10° S visible
21 Feb 5.2 18:40:22 10° WNW 18:43:24 21° WSW 18:46:26 10° S visible
22 Feb 5.6 18:40:50 10° W 18:43:09 15° WSW 18:45:30 10° SSW visible
23 Feb 6.1 18:42:04 10° WSW 18:42:52 11° WSW 18:43:41 10° SW visible
